Location: Songkhla
(7.2000°N, 100.6000°E)
Time: 20:17:40
(UTC+07:00)

Cosmos 1441 Rocket - Pass Details

Date: 16 April 2026
Orbit: 411 x 433 km, 81.1° (Epoch: 20 May)

Event Time Altitude Azimuth Distance (km) Brightness Sun altitude
Rises 18:56:41 0° 18° (NNE) 2,387 6.5 -8.3°
Reaches altitude 10° 18:59:10 10° 37° (NE) 1,517 5.3 -8.9°
Maximum altitude 19:01:32 18° 83° (E) 1,108 4.3 -9.5°
Enters shadow 19:03:19 13° 121° (ESE) 1,355 4.7 -9.9°
